sat.trackr.live / text

‹ back to catalog

SWOT

NORAD 54754 · 2022-173A

PAYLOAD ACTIVE UNKNOWN

§ Identity

Operator
Country
US
Launch date
2022-12-16
Launch site
AFWTR
Launch vehicle
Mass (kg)
RCS (m²)

Purposes: earth_obs

External: N2YO · Heavens-Above · Gunter

§ Orbital elements

Epoch: 2026-05-25T04:39:51.748416Z

Period
102.84 min
Inclination
77.6111°
Eccentricity
0.0000113
Mean motion
14.00171690 rev/d
Perigee alt
893.1 km
Apogee alt
893.3 km
Semi-major
7,271.3 km
B*
2.1949e-5
RAAN
66.3476°
Arg perigee
99.2905°
Mean anomaly
260.8260°
Rev number
17,593

§ Raw data

SWOT1 54754U 22173A   26145.19434894  .00000030  00000+0  21949-4 0  99912 54754  77.6111  66.3476 0000113  99.2905 260.8260 14.00171690175939

JSON: /api/v1/satellites/54754 · /tle

For live sub-satellite position, see the globe view (requires WebGL).

§ Visibility from observer

Set your observer location to see the next 7 days of passes ≥ 10°. The values pass through the URL so the page stays shareable.

No JS? Fill the form by hand. The geolocation button needs JavaScript.